Weather History for Stornoway, United Kingdom

Change the Weather History Date:

Saturday, January 19, 2013

  Actual Average Record
Temperature  
Mean Temperature 38 °F -  
Max Temperature 40 °F 44 °F 51 °F (2006)
Min Temperature 35 °F 35 °F 32 °F (2003)
Degree Days  
Heating Degree Days 28    
Moisture  
Dew Point 29 °F    
Average Humidity 70    
Maximum Humidity 81    
Minimum Humidity 56    
Precipitation  
Precipitation 0.00 in 0.13 in - ()
Sea Level Pressure  
Sea Level Pressure 29.71 in    
Wind  
Wind Speed 19 mph ()    
Max Wind Speed 29 mph    
Max Gust Speed 38 mph    
Visibility 6.6 miles    
Events      
Averages and records for this station are not official NWS values.
T = Trace of Precipitation, MM = Missing Value Source: Averaged Metar Reports

Daily Weather History Graph

Daily Weather History Graph

Search for Another Location

Airport:

Trip Planner

Search our weather history database for the weather conditions in past years. The results will help you decide how hot, cold, wet, or windy it might be!

Date:

Astronomy

Jan. 19, 2013 Rise Set
Actual Time 8:54 AM GMT 4:18 PM GMT
Civil Twilight 8:06 AM GMT 5:06 PM GMT
Nautical Twilight 7:16 AM GMT 5:56 PM GMT
Astronomical Twilight 6:29 AM GMT 6:43 PM GMT
Moon 10:57 AM GMT 1:50 AM GMT
Length of Visible Light 8h 59m
Length of Day
7h 24m
First Quarter, 55% of the Moon is Illuminated
Jan 19
First Quarter
Jan 27
Full
Feb 3
Last Quarter
Feb 10
New
Feb 17
First Quarter

Hourly Weather History & Observations

Time (GMT) Temp. Windchill Dew Point Humidity Pressure Visibility Wind Dir Wind Speed Gust Speed Precip Events Conditions
12:20 AM 37.4 °F 25.4 °F 30.2 °F 75% 29.62 in 6.2 mi ESE 27.6 mph - N/A   Scattered Clouds
12:50 AM 37.4 °F 26.1 °F 30.2 °F 75% 29.62 in 6.2 mi ESE 24.2 mph - N/A   Scattered Clouds
1:20 AM 37.4 °F 25.6 °F 28.4 °F 70% 29.62 in 6.2 mi ESE 26.5 mph 38.0 mph N/A   Scattered Clouds
1:50 AM 37.4 °F 25.9 °F 28.4 °F 70% 29.62 in 6.2 mi ESE 25.3 mph 36.8 mph N/A   Scattered Clouds
2:20 AM 37.4 °F 26.1 °F 28.4 °F 70% 29.65 in 6.2 mi ESE 24.2 mph - N/A   Scattered Clouds
2:50 AM 37 °F - 27 °F 57% 29.64 in 25 mi East 28.8 mph - -   Scattered Clouds
2:50 AM 37.4 °F 25.9 °F 28.4 °F 70% 29.65 in 6.2 mi ESE 25.3 mph - N/A   Scattered Clouds
3:20 AM 37.4 °F 25.9 °F 28.4 °F 70% 29.62 in 6.2 mi ESE 25.3 mph - N/A   Scattered Clouds
3:50 AM 37.4 °F 26.9 °F 30.2 °F 75% 29.65 in 6.2 mi ESE 20.7 mph - N/A   Partly Cloudy
4:20 AM 37.4 °F 27.2 °F 28.4 °F 70% 29.65 in 6.2 mi ESE 19.6 mph - N/A   Partly Cloudy
4:50 AM 37.4 °F 27.5 °F 30.2 °F 75% 29.65 in 6.2 mi East 18.4 mph - N/A   Scattered Clouds
5:20 AM 37.4 °F 26.9 °F 28.4 °F 70% 29.65 in 6.2 mi ESE 20.7 mph 32.2 mph N/A   Scattered Clouds
5:50 AM 37 °F - 28 °F 59% 29.65 in 22 mi East 27.6 mph - -  
5:50 AM 37.4 °F 26.9 °F 28.4 °F 70% 29.65 in 6.2 mi ESE 20.7 mph - N/A   Partly Cloudy
6:20 AM 37.4 °F 27.5 °F 30.2 °F 75% 29.65 in 6.2 mi East 18.4 mph - N/A   Partly Cloudy
6:50 AM 37.4 °F 27.8 °F 30.2 °F 75% 29.68 in 6.2 mi East 17.3 mph - N/A   Scattered Clouds
7:20 AM 37.4 °F 26.9 °F 30.2 °F 75% 29.68 in 6.2 mi East 20.7 mph - N/A   Scattered Clouds
7:50 AM 37.4 °F 28.2 °F 30.2 °F 75% 29.68 in 6.2 mi East 16.1 mph - N/A   Scattered Clouds
8:20 AM 37.4 °F 27.8 °F 30.2 °F 75% 29.71 in 6.2 mi ESE 17.3 mph - N/A   Scattered Clouds
8:50 AM 37 °F - 30 °F 66% 29.71 in 22 mi East 21.9 mph - -  
8:50 AM 37.4 °F 28.2 °F 30.2 °F 75% 29.71 in 6.2 mi ESE 16.1 mph - N/A   Scattered Clouds
9:20 AM 39.2 °F 30.2 °F 32.0 °F 75% 29.71 in 6.2 mi East 17.3 mph - N/A   Scattered Clouds
9:50 AM 39.2 °F 29.6 °F 32.0 °F 75% 29.71 in 6.2 mi ESE 19.6 mph - N/A   Scattered Clouds
10:20 AM 39.2 °F 31.2 °F 32.0 °F 75% 29.74 in 6.2 mi East 13.8 mph - N/A   Scattered Clouds
10:50 AM 39.2 °F 29.3 °F 32.0 °F 75% 29.74 in 6.2 mi East 20.7 mph - N/A   Scattered Clouds
11:20 AM 39.2 °F 29.6 °F 30.2 °F 70% 29.74 in 6.2 mi ESE 19.6 mph - N/A   Partly Cloudy
11:50 AM 40 °F - 30 °F 58% 29.74 in 12 mi East 21.9 mph - -  
11:50 AM 41.0 °F 32.2 °F 30.2 °F 65% 29.74 in 6.2 mi ESE 18.4 mph - N/A   Partly Cloudy
12:20 PM 39.2 °F 30.2 °F 32.0 °F 75% 29.74 in 6.2 mi East 17.3 mph - N/A   Partly Cloudy
12:50 PM 39.2 °F 30.5 °F 32.0 °F 75% 29.74 in 6.2 mi ESE 16.1 mph - N/A   Partly Cloudy
1:20 PM 39.2 °F 30.5 °F 32.0 °F 75% 29.74 in 6.2 mi ESE 16.1 mph - N/A   Partly Cloudy
1:50 PM 39.2 °F 29.6 °F 30.2 °F 70% 29.74 in 6.2 mi East 19.6 mph - N/A   Partly Cloudy
2:20 PM 39.2 °F 30.2 °F 30.2 °F 70% 29.74 in 6.2 mi ESE 17.3 mph - N/A   Partly Cloudy
2:50 PM 40 °F - 30 °F 56% 29.75 in 19 mi East 21.9 mph - -   Scattered Clouds
2:50 PM 39.2 °F 31.2 °F 30.2 °F 70% 29.74 in 6.2 mi ESE 13.8 mph - N/A   Partly Cloudy
3:20 PM 41.0 °F 32.2 °F 30.2 °F 65% 29.74 in 6.2 mi ESE 18.4 mph - N/A   Scattered Clouds
3:50 PM 39.2 °F 30.5 °F 30.2 °F 70% 29.74 in 6.2 mi ESE 16.1 mph - N/A   Partly Cloudy
4:20 PM 39.2 °F 30.8 °F 30.2 °F 70% 29.77 in 6.2 mi ESE 15.0 mph - N/A   Partly Cloudy
4:50 PM 39.2 °F 31.6 °F 28.4 °F 65% 29.77 in 6.2 mi ESE 12.7 mph - N/A   Partly Cloudy
5:20 PM 37.4 °F 29.8 °F 30.2 °F 75% 29.74 in 6.2 mi ESE 11.5 mph - N/A   Partly Cloudy
5:50 PM 37 °F - 28 °F 61% 29.74 in 28 mi East 23.0 mph - -  
5:50 PM 37.4 °F 28.5 °F 28.4 °F 70% 29.74 in 6.2 mi East 15.0 mph - N/A   Unknown
6:20 PM 37.4 °F 29.8 °F 28.4 °F 70% 29.77 in 6.2 mi East 11.5 mph - N/A   Unknown
6:50 PM 37.4 °F 28.9 °F 28.4 °F 70% 29.77 in 6.2 mi ESE 13.8 mph - N/A   Unknown
7:20 PM 37.4 °F 28.2 °F 28.4 °F 70% 29.77 in 6.2 mi ESE 16.1 mph - N/A   Unknown
7:50 PM 37.4 °F 28.5 °F 26.6 °F 65% 29.77 in 6.2 mi ESE 15.0 mph - N/A   Unknown
8:20 PM 35.6 °F 26.2 °F 28.4 °F 75% 29.77 in 6.2 mi SE 15.0 mph - N/A   Unknown
8:50 PM 36 °F - 29 °F 66% 29.76 in 25 mi ESE 15.0 mph - -  
8:50 PM 35.6 °F 27.5 °F 30.2 °F 81% 29.77 in 6.2 mi ESE 11.5 mph - N/A   Unknown
9:20 PM 37.4 °F 29.8 °F 28.4 °F 70% 29.77 in 6.2 mi ESE 11.5 mph - N/A   Unknown
9:50 PM 37.4 °F 29.8 °F 28.4 °F 70% 29.77 in 6.2 mi ESE 11.5 mph - N/A   Partly Cloudy
10:20 PM 37.4 °F 29.8 °F 26.6 °F 65% 29.74 in 6.2 mi ESE 11.5 mph - N/A   Partly Cloudy
10:50 PM 35.6 °F 27.1 °F 26.6 °F 70% 29.74 in 6.2 mi ESE 12.7 mph - N/A   Partly Cloudy
11:20 PM 35.6 °F 27.1 °F 28.4 °F 75% 29.74 in 6.2 mi ESE 12.7 mph - N/A   Unknown
11:50 PM 36 °F - 27 °F 59% 29.75 in 28 mi ESE 16.1 mph - -  
11:50 PM 35.6 °F 26.6 °F 26.6 °F 70% 29.74 in 6.2 mi SE 13.8 mph - N/A   Unknown